TimeEDT,TemperatureF,Dew PointF,Humidity,Sea Level PressureIn,VisibilityMPH,Wind Direction,Wind SpeedMPH,Gust SpeedMPH,PrecipitationIn,Events,Conditions,WindDirDegrees,DateUTC
12:15 AM,39.2,35.6,87,30.36,10.0,SW,3.5,-,N/A,,Scattered Clouds,220,2013-04-26 04:15:00
12:35 AM,39.2,33.8,81,30.36,10.0,Calm,Calm,-,N/A,,Partly Cloudy,0,2013-04-26 04:35:00
12:55 AM,37.4,35.6,93,30.36,10.0,Calm,Calm,-,N/A,,Clear,0,2013-04-26 04:55:00
1:15 AM,37.4,33.8,87,30.36,10.0,Calm,Calm,-,N/A,,Clear,0,2013-04-26 05:15:00
1:35 AM,37.4,35.6,93,30.37,10.0,Calm,Calm,-,N/A,,Clear,0,2013-04-26 05:35:00
1:55 AM,37.4,33.8,87,30.36,5.0,Calm,Calm,-,N/A,,Clear,0,2013-04-26 05:55:00
2:15 AM,37.4,35.6,93,30.37,4.0,Calm,Calm,-,N/A,,Clear,0,2013-04-26 06:15:00
2:35 AM,35.6,33.8,93,30.37,0.2,Calm,Calm,-,N/A,,Unknown,0,2013-04-26 06:35:00
3:15 AM,35.6,33.8,93,30.37,0.5,Calm,Calm,-,N/A,,Unknown,0,2013-04-26 07:15:00
3:35 AM,33.8,32.0,93,30.38,0.2,Calm,Calm,-,N/A,,Unknown,0,2013-04-26 07:35:00
3:55 AM,33.8,32.0,93,30.39,0.2,Calm,Calm,-,N/A,,Unknown,0,2013-04-26 07:55:00
4:15 AM,33.8,32.0,93,30.39,0.2,Calm,Calm,-,N/A,,Unknown,0,2013-04-26 08:15:00
4:35 AM,33.8,32.0,93,30.39,0.2,Calm,Calm,-,N/A,,Overcast,0,2013-04-26 08:35:00
4:55 AM,32.0,30.2,93,30.39,0.2,Calm,Calm,-,N/A,,Overcast,0,2013-04-26 08:55:00
5:15 AM,30.2,28.4,93,30.40,0.2,Calm,Calm,-,N/A,,Overcast,0,2013-04-26 09:15:00
5:35 AM,30.2,28.4,93,30.40,0.2,Calm,Calm,-,N/A,,Overcast,0,2013-04-26 09:35:00
5:55 AM,30.2,28.4,93,30.41,0.2,Calm,Calm,-,N/A,,Overcast,0,2013-04-26 09:55:00
6:15 AM,30.2,28.4,93,30.42,0.2,Calm,Calm,-,N/A,,Mostly Cloudy,0,2013-04-26 10:15:00
6:35 AM,30.2,26.6,86,30.42,0.2,Calm,Calm,-,N/A,,Unknown,0,2013-04-26 10:35:00
6:55 AM,30.2,28.4,93,30.43,0.2,Calm,Calm,-,N/A,,Unknown,0,2013-04-26 10:55:00
7:15 AM,30.2,28.4,93,30.44,0.2,Calm,Calm,-,N/A,,Mostly Cloudy,0,2013-04-26 11:15:00
7:35 AM,30.2,28.4,93,30.45,1.0,Calm,Calm,-,N/A,,Mostly Cloudy,0,2013-04-26 11:35:00
7:55 AM,32.0,30.2,93,30.46,0.2,Calm,Calm,-,N/A,,Unknown,0,2013-04-26 11:55:00
8:15 AM,35.6,33.8,93,30.46,2.0,Calm,Calm,-,N/A,,Clear,0,2013-04-26 12:15:00
8:35 AM,37.4,35.6,93,30.47,5.0,NNE,5.8,-,N/A,,Clear,30,2013-04-26 12:35:00
8:55 AM,39.2,37.4,93,30.48,10.0,NE,4.6,-,N/A,,Clear,40,2013-04-26 12:55:00
9:15 AM,39.2,37.4,93,30.48,10.0,NE,3.5,-,N/A,,Clear,50,2013-04-26 13:15:00
9:35 AM,42.8,35.6,76,30.48,10.0,East,6.9,-,N/A,,Clear,90,2013-04-26 13:35:00
9:55 AM,44.6,35.6,71,30.48,10.0,East,8.1,-,N/A,,Clear,90,2013-04-26 13:55:00
10:15 AM,46.4,33.8,62,30.49,10.0,North,3.5,-,N/A,,Clear,10,2013-04-26 14:15:00
10:35 AM,46.4,30.2,53,30.49,10.0,East,4.6,-,N/A,,Scattered Clouds,90,2013-04-26 14:35:00
10:55 AM,46.4,28.4,50,30.48,10.0,SSE,3.5,-,N/A,,Partly Cloudy,150,2013-04-26 14:55:00
11:15 AM,48.2,32.0,54,30.49,10.0,South,6.9,-,N/A,,Partly Cloudy,190,2013-04-26 15:15:00
11:35 AM,48.2,30.2,50,30.49,10.0,South,4.6,-,N/A,,Mostly Cloudy,170,2013-04-26 15:35:00
11:55 AM,48.2,28.4,46,30.49,10.0,ESE,4.6,-,N/A,,Overcast,120,2013-04-26 15:55:00
12:15 PM,51.8,30.2,44,30.49,10.0,SSE,4.6,-,N/A,,Scattered Clouds,150,2013-04-26 16:15:00
12:35 PM,51.8,28.4,41,30.49,10.0,Calm,Calm,-,N/A,,Scattered Clouds,0,2013-04-26 16:35:00
12:55 PM,51.8,28.4,41,30.49,10.0,SE,4.6,-,N/A,,Clear,140,2013-04-26 16:55:00
1:15 PM,51.8,28.4,41,30.48,10.0,Calm,Calm,-,N/A,,Scattered Clouds,0,2013-04-26 17:15:00
1:35 PM,53.6,28.4,38,30.47,10.0,SE,3.5,-,N/A,,Scattered Clouds,140,2013-04-26 17:35:00
1:55 PM,53.6,26.6,35,30.47,10.0,South,6.9,-,N/A,,Partly Cloudy,190,2013-04-26 17:55:00
2:15 PM,53.6,28.4,38,30.46,10.0,SW,5.8,-,N/A,,Clear,230,2013-04-26 18:15:00
2:35 PM,53.6,26.6,35,30.46,10.0,Calm,Calm,-,N/A,,Clear,0,2013-04-26 18:35:00
2:55 PM,53.6,28.4,38,30.46,10.0,ENE,3.5,-,N/A,,Clear,70,2013-04-26 18:55:00
3:15 PM,55.4,28.4,36,30.45,10.0,NW,4.6,-,N/A,,Clear,320,2013-04-26 19:15:00
3:35 PM,55.4,28.4,36,30.45,10.0,Calm,Calm,-,N/A,,Clear,0,2013-04-26 19:35:00
3:55 PM,55.4,28.4,36,30.44,10.0,South,5.8,-,N/A,,Clear,170,2013-04-26 19:55:00
4:15 PM,57.2,28.4,33,30.44,10.0,SSW,8.1,-,N/A,,Clear,200,2013-04-26 20:15:00
4:35 PM,57.2,28.4,33,30.42,10.0,West,3.5,-,N/A,,Clear,260,2013-04-26 20:35:00
4:55 PM,55.4,26.6,33,30.42,10.0,NNE,4.6,-,N/A,,Clear,30,2013-04-26 20:55:00
5:15 PM,55.4,26.6,33,30.40,10.0,ENE,3.5,-,N/A,,Clear,60,2013-04-26 21:15:00
5:35 PM,55.4,26.6,33,30.40,10.0,Calm,Calm,-,N/A,,Clear,0,2013-04-26 21:35:00
5:55 PM,55.4,26.6,33,30.40,10.0,SE,3.5,-,N/A,,Clear,130,2013-04-26 21:55:00
6:15 PM,57.2,26.6,31,30.40,10.0,West,4.6,-,N/A,,Clear,260,2013-04-26 22:15:00
6:35 PM,57.2,26.6,31,30.40,10.0,West,5.8,-,N/A,,Clear,270,2013-04-26 22:35:00
6:55 PM,55.4,26.6,33,30.39,10.0,Calm,Calm,-,N/A,,Clear,0,2013-04-26 22:55:00
7:15 PM,55.4,26.6,33,30.40,10.0,SW,3.5,-,N/A,,Clear,220,2013-04-26 23:15:00
7:35 PM,55.4,26.6,33,30.40,10.0,Calm,Calm,-,N/A,,Clear,0,2013-04-26 23:35:00
7:55 PM,55.4,24.8,31,30.40,10.0,Calm,Calm,-,N/A,,Clear,0,2013-04-26 23:55:00
8:15 PM,53.6,24.8,33,30.40,10.0,Calm,Calm,-,N/A,,Clear,0,2013-04-27 00:15:00
8:35 PM,51.8,26.6,38,30.41,10.0,Calm,Calm,-,N/A,,Clear,0,2013-04-27 00:35:00
8:55 PM,50.0,26.6,40,30.41,10.0,East,3.5,-,N/A,,Clear,80,2013-04-27 00:55:00
9:15 PM,48.2,28.4,46,30.42,10.0,Calm,Calm,-,N/A,,Clear,0,2013-04-27 01:15:00
9:35 PM,46.4,30.2,53,30.42,10.0,Calm,Calm,-,N/A,,Clear,0,2013-04-27 01:35:00
9:55 PM,44.6,28.4,53,30.42,10.0,East,3.5,-,N/A,,Clear,90,2013-04-27 01:55:00
10:15 PM,44.6,30.2,57,30.42,10.0,Calm,Calm,-,N/A,,Clear,0,2013-04-27 02:15:00
10:35 PM,44.6,30.2,57,30.42,10.0,Calm,Calm,-,N/A,,Clear,0,2013-04-27 02:35:00
10:55 PM,42.8,26.6,53,30.42,10.0,Calm,Calm,-,N/A,,Clear,0,2013-04-27 02:55:00
11:15 PM,42.8,30.2,61,30.42,10.0,Calm,Calm,-,N/A,,Clear,0,2013-04-27 03:15:00
11:35 PM,41.0,30.2,65,30.42,10.0,Calm,Calm,-,N/A,,Clear,0,2013-04-27 03:35:00
11:55 PM,39.2,28.4,65,30.41,10.0,Calm,Calm,-,N/A,,Clear,0,2013-04-27 03:55:00